Time,TemperatureF,DewpointF,PressureIn,WindDirection,WindDirectionDegrees,WindSpeedMPH,WindSpeedGustMPH,Humidity,HourlyPrecipIn,Conditions,Clouds,dailyrainin,SoftwareType,DateUTC
2013-10-31 00:01:00,41.1,40.8,29.76,SSW,202,0.0,3.0,99,0.01,,,0.19,WUHU216DAVISVP2,2013-10-31 05:01:00,
2013-10-31 00:06:00,41.2,40.9,29.75,SSW,202,0.0,3.0,99,0.01,,,0.19,WUHU216DAVISVP2,2013-10-31 05:06:00,
2013-10-31 00:11:00,41.1,40.8,29.75,SSW,202,0.0,3.0,99,0.01,,,0.19,WUHU216DAVISVP2,2013-10-31 05:11:00,
2013-10-31 00:16:00,41.1,40.8,29.75,SSW,202,0.0,1.0,99,0.01,,,0.19,WUHU216DAVISVP2,2013-10-31 05:16:00,
2013-10-31 00:21:00,41.1,40.8,29.75,SSW,202,0.0,1.0,99,0.01,,,0.19,WUHU216DAVISVP2,2013-10-31 05:21:00,
2013-10-31 00:26:00,41.1,40.8,29.75,SSW,202,0.0,1.0,99,0.01,,,0.19,WUHU216DAVISVP2,2013-10-31 05:26:00,
2013-10-31 00:31:00,41.1,40.8,29.74,SSW,202,0.0,1.0,99,0.01,,,0.19,WUHU216DAVISVP2,2013-10-31 05:31:00,
2013-10-31 00:36:00,41.2,40.9,29.74,SSW,202,0.0,1.0,99,0.01,,,0.19,WUHU216DAVISVP2,2013-10-31 05:36:00,
2013-10-31 00:41:00,41.2,40.9,29.74,SSW,202,0.0,1.0,99,0.01,,,0.19,WUHU216DAVISVP2,2013-10-31 05:41:00,
2013-10-31 00:46:00,41.3,41.0,29.74,SW,222,0.0,2.0,99,0.01,,,0.19,WUHU216DAVISVP2,2013-10-31 05:46:00,
2013-10-31 00:51:00,41.3,41.0,29.73,SW,222,0.0,2.0,99,0.02,,,0.20,WUHU216DAVISVP2,2013-10-31 05:51:00,
2013-10-31 00:56:00,41.3,41.0,29.73,SW,222,0.0,2.0,99,0.01,,,0.20,WUHU216DAVISVP2,2013-10-31 05:56:00,
2013-10-31 01:01:00,41.3,41.0,29.73,SSW,207,0.0,2.0,99,0.01,,,0.20,WUHU216DAVISVP2,2013-10-31 06:01:00,
2013-10-31 01:06:00,41.4,41.1,29.73,SSW,207,0.0,2.0,99,0.01,,,0.20,WUHU216DAVISVP2,2013-10-31 06:06:00,
2013-10-31 01:11:00,41.3,41.0,29.73,SSW,208,0.0,2.0,99,0.01,,,0.20,WUHU216DAVISVP2,2013-10-31 06:11:00,
2013-10-31 01:16:00,41.3,41.0,29.73,SSW,208,0.0,2.0,99,0.01,,,0.20,WUHU216DAVISVP2,2013-10-31 06:16:00,
2013-10-31 01:21:00,41.3,41.0,29.73,SSW,208,0.0,2.0,99,0.01,,,0.20,WUHU216DAVISVP2,2013-10-31 06:21:00,
2013-10-31 01:26:00,41.3,41.0,29.73,SSW,208,0.0,3.0,99,0.01,,,0.20,WUHU216DAVISVP2,2013-10-31 06:26:00,
2013-10-31 01:31:00,41.3,41.0,29.74,SSW,208,0.0,3.0,99,0.01,,,0.20,WUHU216DAVISVP2,2013-10-31 06:31:00,
2013-10-31 01:36:00,41.2,40.9,29.73,SSW,208,0.0,3.0,99,0.01,,,0.20,WUHU216DAVISVP2,2013-10-31 06:36:00,
2013-10-31 01:41:00,41.1,40.8,29.72,NNE,23,0.0,2.0,99,0.01,,,0.20,WUHU216DAVISVP2,2013-10-31 06:41:00,
2013-10-31 01:46:00,41.1,40.8,29.72,SE,146,1.0,2.0,99,0.01,,,0.20,WUHU216DAVISVP2,2013-10-31 06:46:00,
2013-10-31 01:51:00,41.0,40.7,29.72,WNW,282,0.0,2.0,99,0.00,,,0.20,WUHU216DAVISVP2,2013-10-31 06:51:00,
2013-10-31 01:56:00,41.0,40.7,29.72,WSW,240,0.0,2.0,99,0.00,,,0.20,WUHU216DAVISVP2,2013-10-31 06:56:00,
2013-10-31 02:01:00,40.9,40.6,29.72,WSW,240,0.0,2.0,99,0.00,,,0.20,WUHU216DAVISVP2,2013-10-31 07:01:00,
2013-10-31 02:06:00,40.9,40.6,29.71,SW,232,0.0,3.0,99,0.00,,,0.20,WUHU216DAVISVP2,2013-10-31 07:06:00,
2013-10-31 02:11:00,40.8,40.3,29.71,West,281,0.0,3.0,98,0.00,,,0.20,WUHU216DAVISVP2,2013-10-31 07:11:00,
2013-10-31 02:16:00,40.8,40.3,29.71,West,281,0.0,3.0,98,0.01,,,0.21,WUHU216DAVISVP2,2013-10-31 07:16:00,
2013-10-31 02:21:00,40.7,40.2,29.71,West,281,0.0,3.0,98,0.01,,,0.21,WUHU216DAVISVP2,2013-10-31 07:21:00,
2013-10-31 02:26:00,40.7,40.2,29.70,West,279,0.0,3.0,98,0.01,,,0.21,WUHU216DAVISVP2,2013-10-31 07:26:00,
2013-10-31 02:31:00,40.7,40.2,29.70,SW,223,0.0,3.0,98,0.01,,,0.21,WUHU216DAVISVP2,2013-10-31 07:31:00,
2013-10-31 02:36:00,40.7,40.2,29.69,SW,223,0.0,3.0,98,0.01,,,0.21,WUHU216DAVISVP2,2013-10-31 07:36:00,
2013-10-31 02:41:00,40.7,40.2,29.69,SW,223,1.0,3.0,98,0.01,,,0.21,WUHU216DAVISVP2,2013-10-31 07:41:00,
2013-10-31 02:46:00,40.6,40.1,29.69,SW,223,0.0,3.0,98,0.01,,,0.21,WUHU216DAVISVP2,2013-10-31 07:46:00,
2013-10-31 02:51:00,40.6,40.1,29.69,SW,223,0.0,1.0,98,0.01,,,0.21,WUHU216DAVISVP2,2013-10-31 07:51:00,
2013-10-31 02:56:00,40.6,40.1,29.69,SW,223,0.0,1.0,98,0.01,,,0.21,WUHU216DAVISVP2,2013-10-31 07:56:00,
2013-10-31 03:01:00,40.6,40.1,29.69,SW,223,0.0,1.0,98,0.01,,,0.21,WUHU216DAVISVP2,2013-10-31 08:01:00,
2013-10-31 03:06:00,40.6,40.1,29.69,SW,223,0.0,1.0,98,0.01,,,0.21,WUHU216DAVISVP2,2013-10-31 08:06:00,
2013-10-31 03:11:00,40.6,40.1,29.69,SW,223,0.0,1.0,98,0.01,,,0.21,WUHU216DAVISVP2,2013-10-31 08:11:00,
2013-10-31 03:16:00,40.6,40.1,29.68,SW,223,1.0,2.0,98,0.00,,,0.21,WUHU216DAVISVP2,2013-10-31 08:16:00,
2013-10-31 03:21:00,40.6,40.1,29.69,SW,223,0.0,2.0,98,0.00,,,0.21,WUHU216DAVISVP2,2013-10-31 08:21:00,
2013-10-31 03:26:00,40.5,40.2,29.69,SW,223,0.0,2.0,99,0.00,,,0.21,WUHU216DAVISVP2,2013-10-31 08:26:00,
2013-10-31 03:31:00,40.5,40.2,29.69,SW,223,1.0,2.0,99,0.00,,,0.21,WUHU216DAVISVP2,2013-10-31 08:31:00,
2013-10-31 03:36:00,40.5,40.2,29.68,SW,223,0.0,2.0,99,0.00,,,0.21,WUHU216DAVISVP2,2013-10-31 08:36:00,
2013-10-31 03:41:00,40.4,40.1,29.67,SW,223,0.0,2.0,99,0.01,,,0.22,WUHU216DAVISVP2,2013-10-31 08:41:00,
2013-10-31 03:46:00,40.4,40.1,29.67,WSW,243,0.0,5.0,99,0.01,,,0.22,WUHU216DAVISVP2,2013-10-31 08:46:00,
2013-10-31 03:51:00,40.4,40.1,29.66,NNE,17,0.0,5.0,99,0.01,,,0.22,WUHU216DAVISVP2,2013-10-31 08:51:00,
2013-10-31 03:56:00,40.3,40.0,29.67,NNE,32,0.0,5.0,99,0.01,,,0.22,WUHU216DAVISVP2,2013-10-31 08:56:00,
2013-10-31 04:01:00,40.2,39.9,29.66,NNE,32,0.0,5.0,99,0.01,,,0.22,WUHU216DAVISVP2,2013-10-31 09:01:00,
2013-10-31 04:06:00,40.2,39.7,29.66,NNE,32,1.0,2.0,98,0.01,,,0.22,WUHU216DAVISVP2,2013-10-31 09:06:00,
2013-10-31 04:10:00,40.2,39.7,29.65,NNE,32,0.0,2.0,98,0.01,,,0.22,WUHU216DAVISVP2,2013-10-31 09:10:00,
2013-10-31 04:15:00,40.1,39.6,29.65,NNE,32,0.0,2.0,98,0.01,,,0.22,WUHU216DAVISVP2,2013-10-31 09:15:00,
2013-10-31 04:20:00,40.1,39.6,29.64,West,264,1.0,3.0,98,0.01,,,0.22,WUHU216DAVISVP2,2013-10-31 09:20:00,
2013-10-31 04:25:00,40.1,39.6,29.64,West,271,0.0,3.0,98,0.01,,,0.22,WUHU216DAVISVP2,2013-10-31 09:25:00,
2013-10-31 04:30:00,40.1,39.6,29.65,West,272,0.0,3.0,98,0.01,,,0.22,WUHU216DAVISVP2,2013-10-31 09:30:00,
2013-10-31 04:35:00,40.1,39.6,29.65,SSE,163,0.0,3.0,98,0.01,,,0.22,WUHU216DAVISVP2,2013-10-31 09:35:00,
2013-10-31 04:40:00,40.0,39.5,29.64,SW,223,0.0,2.0,98,0.00,,,0.22,WUHU216DAVISVP2,2013-10-31 09:40:00,
2013-10-31 04:45:00,40.0,39.5,29.64,WNW,297,0.0,2.0,98,0.00,,,0.22,WUHU216DAVISVP2,2013-10-31 09:45:00,
2013-10-31 04:51:00,40.0,39.5,29.64,SSW,209,0.0,3.0,98,0.00,,,0.22,WUHU216DAVISVP2,2013-10-31 09:51:00,
2013-10-31 04:56:00,39.9,39.4,29.64,NW,306,0.0,3.0,98,0.00,,,0.22,WUHU216DAVISVP2,2013-10-31 09:56:00,
2013-10-31 05:00:00,39.9,39.4,29.64,NW,315,0.0,3.0,98,0.00,,,0.22,WUHU216DAVISVP2,2013-10-31 10:00:00,
2013-10-31 05:05:00,39.8,39.3,29.64,NW,316,0.0,3.0,98,0.00,,,0.22,WUHU216DAVISVP2,2013-10-31 10:05:00,
2013-10-31 05:10:00,39.8,39.3,29.64,NW,315,0.0,4.0,98,0.00,,,0.22,WUHU216DAVISVP2,2013-10-31 10:10:00,
2013-10-31 05:15:00,39.8,39.5,29.64,NW,311,0.0,4.0,99,0.00,,,0.22,WUHU216DAVISVP2,2013-10-31 10:15:00,
2013-10-31 05:20:00,39.8,39.5,29.64,NNW,341,0.0,4.0,99,0.00,,,0.22,WUHU216DAVISVP2,2013-10-31 10:20:00,
2013-10-31 05:25:00,39.8,39.5,29.64,South,173,0.0,4.0,99,0.00,,,0.22,WUHU216DAVISVP2,2013-10-31 10:25:00,
2013-10-31 05:30:00,39.8,39.5,29.63,NNE,19,0.0,3.0,99,0.00,,,0.22,WUHU216DAVISVP2,2013-10-31 10:30:00,
2013-10-31 05:35:00,39.7,39.4,29.63,NNW,344,0.0,3.0,99,0.00,,,0.22,WUHU216DAVISVP2,2013-10-31 10:35:00,
2013-10-31 05:40:00,39.7,39.4,29.63,NW,317,0.0,3.0,99,0.00,,,0.22,WUHU216DAVISVP2,2013-10-31 10:40:00,
2013-10-31 05:45:00,39.7,39.4,29.63,WSW,250,0.0,3.0,99,0.00,,,0.22,WUHU216DAVISVP2,2013-10-31 10:45:00,
2013-10-31 05:50:00,39.7,39.4,29.63,NW,315,0.0,3.0,99,0.00,,,0.22,WUHU216DAVISVP2,2013-10-31 10:50:00,
2013-10-31 05:55:00,39.7,39.4,29.63,NE,35,0.0,4.0,99,0.00,,,0.22,WUHU216DAVISVP2,2013-10-31 10:55:00,
2013-10-31 06:00:00,39.6,39.3,29.63,North,360,0.0,4.0,99,0.00,,,0.22,WUHU216DAVISVP2,2013-10-31 11:00:00,
2013-10-31 06:05:00,39.6,39.3,29.62,North,360,0.0,4.0,99,0.00,,,0.22,WUHU216DAVISVP2,2013-10-31 11:05:00,
2013-10-31 06:10:00,39.6,39.1,29.63,North,355,0.0,4.0,98,0.00,,,0.22,WUHU216DAVISVP2,2013-10-31 11:10:00,
2013-10-31 06:15:00,39.6,39.1,29.64,North,360,0.0,3.0,98,0.00,,,0.22,WUHU216DAVISVP2,2013-10-31 11:15:00,
2013-10-31 06:20:00,39.6,39.1,29.64,North,355,0.0,3.0,98,0.00,,,0.22,WUHU216DAVISVP2,2013-10-31 11:20:00,
2013-10-31 06:25:00,39.6,39.1,29.64,North,355,0.0,3.0,98,0.00,,,0.22,WUHU216DAVISVP2,2013-10-31 11:25:00,
2013-10-31 06:30:00,39.6,39.1,29.64,NNW,341,0.0,3.0,98,0.01,,,0.23,WUHU216DAVISVP2,2013-10-31 11:30:00,
2013-10-31 06:35:00,39.5,39.0,29.64,NNW,338,0.0,3.0,98,0.01,,,0.23,WUHU216DAVISVP2,2013-10-31 11:35:00,
2013-10-31 06:40:00,39.5,39.0,29.63,NNW,338,0.0,3.0,98,0.01,,,0.23,WUHU216DAVISVP2,2013-10-31 11:40:00,
2013-10-31 06:45:00,39.5,39.0,29.64,North,11,0.0,3.0,98,0.01,,,0.23,WUHU216DAVISVP2,2013-10-31 11:45:00,
2013-10-31 06:50:00,39.4,38.9,29.64,West,266,0.0,3.0,98,0.01,,,0.23,WUHU216DAVISVP2,2013-10-31 11:50:00,
2013-10-31 06:55:00,39.4,38.9,29.64,West,266,0.0,3.0,98,0.01,,,0.23,WUHU216DAVISVP2,2013-10-31 11:55:00,
2013-10-31 07:00:00,39.3,38.8,29.64,NW,311,0.0,3.0,98,0.01,,,0.23,WUHU216DAVISVP2,2013-10-31 12:00:00,
2013-10-31 07:05:00,39.3,38.8,29.63,NW,311,0.0,2.0,98,0.01,,,0.23,WUHU216DAVISVP2,2013-10-31 12:05:00,
2013-10-31 07:10:00,39.3,38.8,29.62,NW,311,0.0,2.0,98,0.01,,,0.23,WUHU216DAVISVP2,2013-10-31 12:10:00,
2013-10-31 07:15:00,39.3,38.8,29.61,NW,311,0.0,2.0,98,0.01,,,0.23,WUHU216DAVISVP2,2013-10-31 12:15:00,
2013-10-31 07:20:00,39.2,38.7,29.61,NNW,335,0.0,3.0,98,0.01,,,0.23,WUHU216DAVISVP2,2013-10-31 12:20:00,
2013-10-31 07:25:00,39.2,38.9,29.60,NNW,335,0.0,3.0,99,0.01,,,0.23,WUHU216DAVISVP2,2013-10-31 12:25:00,
2013-10-31 07:30:00,39.3,39.0,29.59,NNW,335,0.0,3.0,99,0.00,,,0.23,WUHU216DAVISVP2,2013-10-31 12:30:00,
2013-10-31 07:35:00,39.2,38.9,29.59,NNW,335,0.0,3.0,99,0.00,,,0.23,WUHU216DAVISVP2,2013-10-31 12:35:00,
2013-10-31 07:40:00,39.3,39.0,29.58,NNW,335,0.0,1.0,99,0.00,,,0.23,WUHU216DAVISVP2,2013-10-31 12:40:00,
2013-10-31 07:45:00,39.3,39.0,29.58,NNW,329,0.0,3.0,99,0.00,,,0.23,WUHU216DAVISVP2,2013-10-31 12:45:00,
2013-10-31 07:50:00,39.3,39.0,29.60,NNW,329,0.0,3.0,99,0.00,,,0.23,WUHU216DAVISVP2,2013-10-31 12:50:00,
2013-10-31 07:55:00,39.3,39.0,29.60,NNW,329,0.0,3.0,99,0.00,,,0.23,WUHU216DAVISVP2,2013-10-31 12:55:00,
2013-10-31 08:00:00,39.3,39.0,29.59,NNW,329,0.0,3.0,99,0.00,,,0.23,WUHU216DAVISVP2,2013-10-31 13:00:00,
2013-10-31 08:05:00,39.2,38.9,29.59,NNW,329,0.0,1.0,99,0.00,,,0.23,WUHU216DAVISVP2,2013-10-31 13:05:00,
2013-10-31 08:10:00,39.2,38.9,29.60,NNW,329,0.0,1.0,99,0.00,,,0.23,WUHU216DAVISVP2,2013-10-31 13:10:00,
2013-10-31 08:15:00,39.2,38.9,29.60,NW,316,0.0,3.0,99,0.00,,,0.23,WUHU216DAVISVP2,2013-10-31 13:15:00,
2013-10-31 08:20:00,39.2,38.9,29.60,NW,315,0.0,3.0,99,0.00,,,0.23,WUHU216DAVISVP2,2013-10-31 13:20:00,
2013-10-31 08:25:00,39.2,38.7,29.60,NW,315,0.0,3.0,98,0.00,,,0.23,WUHU216DAVISVP2,2013-10-31 13:25:00,
2013-10-31 08:30:00,39.2,38.7,29.60,NW,313,0.0,3.0,98,0.00,,,0.23,WUHU216DAVISVP2,2013-10-31 13:30:00,
2013-10-31 08:35:00,39.2,38.9,29.61,NW,313,0.0,2.0,99,0.00,,,0.23,WUHU216DAVISVP2,2013-10-31 13:35:00,
2013-10-31 08:40:00,39.1,38.6,29.60,NW,313,0.0,2.0,98,0.00,,,0.23,WUHU216DAVISVP2,2013-10-31 13:40:00,
2013-10-31 08:45:00,39.2,38.7,29.61,NW,317,0.0,2.0,98,0.00,,,0.23,WUHU216DAVISVP2,2013-10-31 13:45:00,
2013-10-31 08:50:00,39.1,38.6,29.61,NW,317,0.0,3.0,98,0.00,,,0.23,WUHU216DAVISVP2,2013-10-31 13:50:00,
2013-10-31 08:55:00,39.1,38.6,29.61,NW,309,0.0,3.0,98,0.00,,,0.23,WUHU216DAVISVP2,2013-10-31 13:55:00,
2013-10-31 09:00:00,39.1,38.6,29.61,NW,309,0.0,3.0,98,0.00,,,0.23,WUHU216DAVISVP2,2013-10-31 14:00:00,
2013-10-31 09:05:00,39.1,38.6,29.61,NW,309,0.0,3.0,98,0.00,,,0.23,WUHU216DAVISVP2,2013-10-31 14:05:00,
2013-10-31 09:10:00,39.1,38.6,29.61,WNW,283,0.0,3.0,98,0.00,,,0.23,WUHU216DAVISVP2,2013-10-31 14:10:00,
2013-10-31 09:15:00,39.1,38.6,29.62,South,180,0.0,4.0,98,0.00,,,0.23,WUHU216DAVISVP2,2013-10-31 14:15:00,
2013-10-31 09:20:00,39.1,38.6,29.61,WSW,257,0.0,4.0,98,0.00,,,0.23,WUHU216DAVISVP2,2013-10-31 14:20:00,
2013-10-31 09:25:00,39.0,38.5,29.61,WSW,239,0.0,4.0,98,0.00,,,0.23,WUHU216DAVISVP2,2013-10-31 14:25:00,
2013-10-31 09:30:00,39.0,38.5,29.61,West,263,0.0,5.0,98,0.00,,,0.23,WUHU216DAVISVP2,2013-10-31 14:30:00,
2013-10-31 09:35:00,38.9,38.4,29.61,South,180,1.0,5.0,98,0.00,,,0.23,WUHU216DAVISVP2,2013-10-31 14:35:00,
2013-10-31 09:40:00,38.9,38.4,29.61,South,191,0.0,5.0,98,0.00,,,0.23,WUHU216DAVISVP2,2013-10-31 14:40:00,
2013-10-31 09:45:00,38.9,38.4,29.60,NW,321,2.0,5.0,98,0.00,,,0.23,WUHU216DAVISVP2,2013-10-31 14:45:00,
2013-10-31 09:50:00,38.9,38.4,29.60,ENE,67,0.0,3.0,98,0.00,,,0.23,WUHU216DAVISVP2,2013-10-31 14:50:00,
2013-10-31 09:55:00,38.9,38.4,29.60,SW,219,0.0,3.0,98,0.00,,,0.23,WUHU216DAVISVP2,2013-10-31 14:55:00,
2013-10-31 10:00:00,38.9,38.4,29.59,WSW,240,0.0,4.0,98,0.00,,,0.23,WUHU216DAVISVP2,2013-10-31 15:00:00,
2013-10-31 10:05:00,38.9,38.4,29.59,West,267,0.0,4.0,98,0.00,,,0.23,WUHU216DAVISVP2,2013-10-31 15:05:00,
2013-10-31 10:10:00,38.9,38.6,29.58,NNW,336,0.0,4.0,99,0.00,,,0.23,WUHU216DAVISVP2,2013-10-31 15:10:00,
2013-10-31 10:15:00,38.8,38.5,29.58,NNW,333,0.0,4.0,99,0.00,,,0.23,WUHU216DAVISVP2,2013-10-31 15:15:00,
2013-10-31 10:20:00,38.8,38.5,29.58,NNW,332,0.0,3.0,99,0.00,,,0.23,WUHU216DAVISVP2,2013-10-31 15:20:00,
2013-10-31 10:25:00,38.8,38.5,29.59,WNW,302,0.0,4.0,99,0.00,,,0.23,WUHU216DAVISVP2,2013-10-31 15:25:00,
2013-10-31 10:30:00,38.8,38.5,29.59,WNW,299,0.0,4.0,99,0.00,,,0.23,WUHU216DAVISVP2,2013-10-31 15:30:00,
2013-10-31 10:35:00,38.8,38.5,29.58,WNW,300,0.0,4.0,99,0.00,,,0.23,WUHU216DAVISVP2,2013-10-31 15:35:00,
2013-10-31 10:40:00,38.8,38.3,29.58,WNW,300,0.0,4.0,98,0.00,,,0.23,WUHU216DAVISVP2,2013-10-31 15:40:00,
2013-10-31 10:45:00,38.9,38.6,29.58,NE,55,0.0,3.0,99,0.00,,,0.23,WUHU216DAVISVP2,2013-10-31 15:45:00,
2013-10-31 10:50:00,38.9,38.6,29.58,NW,317,0.0,3.0,99,0.00,,,0.23,WUHU216DAVISVP2,2013-10-31 15:50:00,
2013-10-31 10:55:00,38.9,38.6,29.58,NE,53,0.0,3.0,99,0.00,,,0.23,WUHU216DAVISVP2,2013-10-31 15:55:00,
2013-10-31 11:00:00,38.9,38.6,29.58,NNW,346,0.0,3.0,99,0.00,,,0.23,WUHU216DAVISVP2,2013-10-31 16:00:00,
2013-10-31 11:05:00,39.0,38.7,29.57,WNW,293,0.0,3.0,99,0.00,,,0.23,WUHU216DAVISVP2,2013-10-31 16:05:00,
2013-10-31 11:10:00,39.0,38.7,29.57,NW,326,0.0,3.0,99,0.00,,,0.23,WUHU216DAVISVP2,2013-10-31 16:10:00,
2013-10-31 11:15:00,39.1,38.8,29.57,SSW,201,0.0,3.0,99,0.00,,,0.23,WUHU216DAVISVP2,2013-10-31 16:15:00,
2013-10-31 11:20:00,39.2,38.9,29.57,NW,325,0.0,3.0,99,0.00,,,0.23,WUHU216DAVISVP2,2013-10-31 16:20:00,
2013-10-31 11:25:00,39.2,38.9,29.57,WNW,297,0.0,3.0,99,0.00,,,0.23,WUHU216DAVISVP2,2013-10-31 16:25:00,
2013-10-31 11:30:00,39.3,39.0,29.56,ESE,107,0.0,2.0,99,0.00,,,0.23,WUHU216DAVISVP2,2013-10-31 16:30:00,
2013-10-31 11:35:00,39.3,39.0,29.55,West,280,0.0,3.0,99,0.00,,,0.23,WUHU216DAVISVP2,2013-10-31 16:35:00,
2013-10-31 11:40:00,39.4,39.1,29.56,West,280,0.0,3.0,99,0.00,,,0.00,WUHU216DAVISVP2,2013-10-31 16:40:00,
2013-10-31 11:45:00,39.5,39.2,29.56,West,280,0.0,3.0,99,0.00,,,0.00,WUHU216DAVISVP2,2013-10-31 16:45:00,
2013-10-31 11:50:00,39.5,39.2,29.56,West,267,0.0,2.0,99,0.00,,,0.00,WUHU216DAVISVP2,2013-10-31 16:50:00,
2013-10-31 11:55:00,39.5,39.2,29.56,West,274,0.0,2.0,99,0.00,,,0.00,WUHU216DAVISVP2,2013-10-31 16:55:00,
2013-10-31 12:00:00,39.5,39.2,29.55,SW,234,1.0,4.0,99,0.00,,,0.00,WUHU216DAVISVP2,2013-10-31 17:00:00,
2013-10-31 12:05:00,39.5,39.2,29.55,NNE,14,0.0,4.0,99,0.00,,,0.00,WUHU216DAVISVP2,2013-10-31 17:05:00,
2013-10-31 12:10:00,39.5,39.2,29.55,North,349,0.0,4.0,99,0.00,,,0.00,WUHU216DAVISVP2,2013-10-31 17:10:00,
2013-10-31 12:15:00,39.5,39.2,29.54,WNW,299,0.0,4.0,99,0.00,,,0.00,WUHU216DAVISVP2,2013-10-31 17:15:00,
2013-10-31 12:20:00,39.4,39.1,29.54,West,263,2.0,3.0,99,0.00,,,0.00,WUHU216DAVISVP2,2013-10-31 17:20:00,
2013-10-31 12:25:00,39.4,39.1,29.54,SSW,206,0.0,4.0,99,0.00,,,0.00,WUHU216DAVISVP2,2013-10-31 17:25:00,
2013-10-31 12:30:00,39.4,39.1,29.54,WNW,286,1.0,4.0,99,0.00,,,0.00,WUHU216DAVISVP2,2013-10-31 17:30:00,
2013-10-31 12:35:00,39.4,39.1,29.54,SSW,211,0.0,4.0,99,0.00,,,0.00,WUHU216DAVISVP2,2013-10-31 17:35:00,
2013-10-31 12:40:00,39.4,39.1,29.54,SSW,211,0.0,3.0,99,0.00,,,0.00,WUHU216DAVISVP2,2013-10-31 17:40:00,
2013-10-31 12:45:00,39.4,39.1,29.53,WSW,245,0.0,3.0,99,0.00,,,0.00,WUHU216DAVISVP2,2013-10-31 17:45:00,
2013-10-31 12:50:00,39.4,39.1,29.54,WSW,246,0.0,2.0,99,0.00,,,0.00,WUHU216DAVISVP2,2013-10-31 17:50:00,
2013-10-31 12:55:00,39.3,39.0,29.54,ENE,67,0.0,2.0,99,0.00,,,0.00,WUHU216DAVISVP2,2013-10-31 17:55:00,
2013-10-31 13:00:00,39.3,38.8,29.54,WSW,253,0.0,2.0,98,0.00,,,0.00,WUHU216DAVISVP2,2013-10-31 18:00:00,
2013-10-31 13:05:00,39.3,38.8,29.54,WNW,292,0.0,3.0,98,0.00,,,0.00,WUHU216DAVISVP2,2013-10-31 18:05:00,
2013-10-31 13:10:00,39.3,38.8,29.54,West,278,0.0,3.0,98,0.00,,,0.00,WUHU216DAVISVP2,2013-10-31 18:10:00,
2013-10-31 13:15:00,39.2,38.7,29.54,WSW,245,1.0,3.0,98,0.00,,,0.00,WUHU216DAVISVP2,2013-10-31 18:15:00,
2013-10-31 13:20:00,39.2,38.7,29.53,WSW,244,0.0,4.0,98,0.00,,,0.00,WUHU216DAVISVP2,2013-10-31 18:20:00,
2013-10-31 13:25:00,39.1,38.6,29.53,West,278,0.0,4.0,98,0.00,,,0.00,WUHU216DAVISVP2,2013-10-31 18:25:00,
2013-10-31 13:30:00,39.1,38.6,29.53,SW,234,0.0,4.0,98,0.00,,,0.00,WUHU216DAVISVP2,2013-10-31 18:30:00,
2013-10-31 13:35:00,39.0,38.5,29.52,NNE,19,0.0,5.0,98,0.00,,,0.00,WUHU216DAVISVP2,2013-10-31 18:35:00,
2013-10-31 13:40:00,38.9,38.4,29.52,WSW,239,0.0,5.0,98,0.00,,,0.00,WUHU216DAVISVP2,2013-10-31 18:40:00,
2013-10-31 13:45:00,38.9,38.4,29.51,ESE,113,0.0,5.0,98,0.00,,,0.00,WUHU216DAVISVP2,2013-10-31 18:45:00,
2013-10-31 13:50:00,38.9,38.4,29.51,ENE,61,0.0,5.0,98,0.00,,,0.00,WUHU216DAVISVP2,2013-10-31 18:50:00,
2013-10-31 13:55:00,38.9,38.4,29.51,ENE,60,2.0,3.0,98,0.00,,,0.00,WUHU216DAVISVP2,2013-10-31 18:55:00,
2013-10-31 14:00:00,38.9,38.4,29.51,NNW,333,2.0,4.0,98,0.00,,,0.00,WUHU216DAVISVP2,2013-10-31 19:00:00,
2013-10-31 14:05:00,38.9,38.4,29.51,NNW,341,0.0,6.0,98,0.00,,,0.00,WUHU216DAVISVP2,2013-10-31 19:05:00,
2013-10-31 14:10:00,38.8,38.3,29.50,NE,49,0.0,6.0,98,0.00,,,0.00,WUHU216DAVISVP2,2013-10-31 19:10:00,
2013-10-31 14:15:00,38.7,38.2,29.50,North,5,4.0,6.0,98,0.00,,,0.00,WUHU216DAVISVP2,2013-10-31 19:15:00,
2013-10-31 14:19:00,38.7,38.2,29.50,North,355,0.0,6.0,98,0.00,,,0.00,WUHU216DAVISVP2,2013-10-31 19:19:00,
2013-10-31 14:24:00,38.6,38.1,29.50,North,355,2.0,5.0,98,0.00,,,0.00,WUHU216DAVISVP2,2013-10-31 19:24:00,
2013-10-31 14:29:00,38.7,38.2,29.50,North,355,0.0,5.0,98,0.00,,,0.00,WUHU216DAVISVP2,2013-10-31 19:29:00,
2013-10-31 14:34:00,38.7,38.2,29.50,NW,308,0.0,5.0,98,0.00,,,0.00,WUHU216DAVISVP2,2013-10-31 19:34:00,
2013-10-31 14:39:00,38.8,38.3,29.49,WNW,291,2.0,4.0,98,0.00,,,0.00,WUHU216DAVISVP2,2013-10-31 19:39:00,
2013-10-31 14:44:00,38.8,38.3,29.50,NE,42,0.0,4.0,98,0.00,,,0.00,WUHU216DAVISVP2,2013-10-31 19:44:00,
2013-10-31 14:49:00,38.8,38.3,29.49,NNW,339,0.0,4.0,98,0.00,,,0.00,WUHU216DAVISVP2,2013-10-31 19:49:00,
2013-10-31 14:53:00,38.8,38.3,29.49,NNW,340,0.0,4.0,98,0.00,,,0.00,WUHU216DAVISVP2,2013-10-31 19:53:00,
2013-10-31 14:58:00,38.8,38.3,29.49,NNE,23,0.0,4.0,98,0.00,,,0.00,WUHU216DAVISVP2,2013-10-31 19:58:00,
2013-10-31 15:03:00,38.8,38.3,29.49,WNW,300,0.0,3.0,98,0.00,,,0.00,WUHU216DAVISVP2,2013-10-31 20:03:00,
2013-10-31 15:08:00,38.8,38.3,29.49,NW,325,3.0,4.0,98,0.00,,,0.00,WUHU216DAVISVP2,2013-10-31 20:08:00,
2013-10-31 15:13:00,38.8,38.3,29.49,NNW,335,2.0,5.0,98,0.00,,,0.00,WUHU216DAVISVP2,2013-10-31 20:13:00,
2013-10-31 15:18:00,38.9,38.4,29.49,SSW,193,0.0,5.0,98,0.00,,,0.00,WUHU216DAVISVP2,2013-10-31 20:18:00,
2013-10-31 15:23:00,38.8,38.3,29.49,WNW,300,0.0,5.0,98,0.00,,,0.00,WUHU216DAVISVP2,2013-10-31 20:23:00,
2013-10-31 15:28:00,38.8,38.3,29.49,North,360,3.0,5.0,98,0.00,,,0.00,WUHU216DAVISVP2,2013-10-31 20:28:00,
2013-10-31 15:33:00,38.8,38.3,29.49,NNW,347,0.0,5.0,98,0.00,,,0.00,WUHU216DAVISVP2,2013-10-31 20:33:00,
2013-10-31 15:38:00,38.8,38.3,29.48,NNW,338,1.0,4.0,98,0.00,,,0.00,WUHU216DAVISVP2,2013-10-31 20:38:00,
2013-10-31 15:43:00,38.7,38.2,29.48,NNW,342,0.0,4.0,98,0.00,,,0.00,WUHU216DAVISVP2,2013-10-31 20:43:00,
2013-10-31 15:48:00,38.7,38.2,29.48,NNW,340,0.0,4.0,98,0.00,,,0.00,WUHU216DAVISVP2,2013-10-31 20:48:00,
2013-10-31 15:53:00,38.7,38.2,29.48,North,11,0.0,4.0,98,0.00,,,0.00,WUHU216DAVISVP2,2013-10-31 20:53:00,
2013-10-31 15:58:00,38.7,38.2,29.48,WNW,302,0.0,5.0,98,0.00,,,0.00,WUHU216DAVISVP2,2013-10-31 20:58:00,
2013-10-31 16:03:00,38.7,38.2,29.48,NW,317,0.0,5.0,98,0.00,,,0.00,WUHU216DAVISVP2,2013-10-31 21:03:00,
2013-10-31 16:08:00,38.7,38.2,29.48,NW,321,0.0,5.0,98,0.00,,,0.00,WUHU216DAVISVP2,2013-10-31 21:08:00,
2013-10-31 16:13:00,38.7,38.2,29.48,WNW,303,0.0,5.0,98,0.00,,,0.00,WUHU216DAVISVP2,2013-10-31 21:13:00,
2013-10-31 16:18:00,38.6,38.1,29.48,NNW,344,0.0,4.0,98,0.00,,,0.00,WUHU216DAVISVP2,2013-10-31 21:18:00,
2013-10-31 16:23:00,38.6,38.1,29.47,SW,217,0.0,5.0,98,0.00,,,0.00,WUHU216DAVISVP2,2013-10-31 21:23:00,
2013-10-31 16:28:00,38.6,38.1,29.48,North,355,0.0,5.0,98,0.00,,,0.00,WUHU216DAVISVP2,2013-10-31 21:28:00,
2013-10-31 16:33:00,38.5,38.0,29.47,NNE,18,0.0,5.0,98,0.00,,,0.00,WUHU216DAVISVP2,2013-10-31 21:33:00,
2013-10-31 16:38:00,38.5,38.0,29.47,WSW,249,3.0,6.0,98,0.00,,,0.00,WUHU216DAVISVP2,2013-10-31 21:38:00,
2013-10-31 16:43:00,38.4,37.9,29.48,NNE,22,0.0,6.0,98,0.00,,,0.00,WUHU216DAVISVP2,2013-10-31 21:43:00,
2013-10-31 16:48:00,38.4,37.9,29.48,NNE,22,2.0,6.0,98,0.00,,,0.00,WUHU216DAVISVP2,2013-10-31 21:48:00,
2013-10-31 16:53:00,38.4,37.9,29.47,NNE,22,0.0,6.0,98,0.00,,,0.00,WUHU216DAVISVP2,2013-10-31 21:53:00,
2013-10-31 16:58:00,38.5,38.0,29.48,NNE,23,0.0,3.0,98,0.00,,,0.00,WUHU216DAVISVP2,2013-10-31 21:58:00,
2013-10-31 17:03:00,38.4,37.9,29.47,North,5,1.0,3.0,98,0.00,,,0.00,WUHU216DAVISVP2,2013-10-31 22:03:00,
2013-10-31 17:08:00,38.4,37.9,29.48,NNE,13,2.0,3.0,98,0.00,,,0.00,WUHU216DAVISVP2,2013-10-31 22:08:00,
2013-10-31 17:13:00,38.4,37.9,29.48,NW,315,0.0,3.0,98,0.00,,,0.00,WUHU216DAVISVP2,2013-10-31 22:13:00,
2013-10-31 17:18:00,38.4,37.9,29.48,North,360,0.0,4.0,98,0.00,,,0.00,WUHU216DAVISVP2,2013-10-31 22:18:00,
2013-10-31 17:23:00,38.3,37.8,29.48,WNW,297,2.0,4.0,98,0.00,,,0.00,WUHU216DAVISVP2,2013-10-31 22:23:00,
2013-10-31 17:28:00,38.3,37.8,29.48,NNW,327,2.0,4.0,98,0.00,,,0.00,WUHU216DAVISVP2,2013-10-31 22:28:00,
2013-10-31 17:33:00,38.3,37.8,29.47,NW,315,0.0,6.0,98,0.00,,,0.00,WUHU216DAVISVP2,2013-10-31 22:33:00,
2013-10-31 17:38:00,38.3,37.8,29.47,NW,323,1.0,6.0,98,0.00,,,0.00,WUHU216DAVISVP2,2013-10-31 22:38:00,
2013-10-31 17:43:00,38.3,37.8,29.48,NNW,333,1.0,6.0,98,0.00,,,0.00,WUHU216DAVISVP2,2013-10-31 22:43:00,
2013-10-31 17:48:00,38.3,37.8,29.47,NW,325,2.0,5.0,98,0.00,,,0.00,WUHU216DAVISVP2,2013-10-31 22:48:00,
2013-10-31 17:53:00,38.3,37.8,29.47,NNW,338,0.0,5.0,98,0.00,,,0.00,WUHU216DAVISVP2,2013-10-31 22:53:00,
2013-10-31 17:58:00,38.3,37.8,29.47,NNW,348,0.0,5.0,98,0.00,,,0.00,WUHU216DAVISVP2,2013-10-31 22:58:00,
2013-10-31 18:03:00,38.2,37.7,29.47,ENE,71,0.0,5.0,98,0.00,,,0.00,WUHU216DAVISVP2,2013-10-31 23:03:00,
2013-10-31 18:08:00,38.2,37.7,29.48,NNW,347,0.0,5.0,98,0.00,,,0.00,WUHU216DAVISVP2,2013-10-31 23:08:00,
2013-10-31 18:13:00,38.2,37.7,29.47,NNW,338,3.0,5.0,98,0.00,,,0.00,WUHU216DAVISVP2,2013-10-31 23:13:00,
2013-10-31 18:18:00,38.3,37.8,29.48,NNE,15,0.0,4.0,98,0.00,,,0.00,WUHU216DAVISVP2,2013-10-31 23:18:00,
2013-10-31 18:23:00,38.3,37.8,29.48,North,5,1.0,6.0,98,0.00,,,0.00,WUHU216DAVISVP2,2013-10-31 23:23:00,
2013-10-31 18:28:00,38.3,37.8,29.48,NNW,347,0.0,6.0,98,0.00,,,0.00,WUHU216DAVISVP2,2013-10-31 23:28:00,
2013-10-31 18:33:00,38.3,37.8,29.48,NNW,344,0.0,6.0,98,0.00,,,0.00,WUHU216DAVISVP2,2013-10-31 23:33:00,
2013-10-31 18:38:00,38.3,37.8,29.48,WNW,302,0.0,6.0,98,0.00,,,0.00,WUHU216DAVISVP2,2013-10-31 23:38:00,
2013-10-31 18:43:00,38.3,37.8,29.48,North,355,2.0,4.0,98,0.00,,,0.00,WUHU216DAVISVP2,2013-10-31 23:43:00,
2013-10-31 18:48:00,38.3,37.8,29.48,North,355,0.0,6.0,98,0.00,,,0.00,WUHU216DAVISVP2,2013-10-31 23:48:00,
2013-10-31 18:53:00,38.3,37.8,29.48,NNE,13,2.0,6.0,98,0.00,,,0.00,WUHU216DAVISVP2,2013-10-31 23:53:00,
2013-10-31 18:58:00,38.2,37.7,29.48,North,11,0.0,6.0,98,0.00,,,0.00,WUHU216DAVISVP2,2013-10-31 23:58:00,
2013-10-31 19:03:00,38.2,37.7,29.48,North,11,0.0,3.0,98,0.00,,,0.00,WUHU216DAVISVP2,2013-11-01 00:03:00,
2013-10-31 19:08:00,38.2,37.7,29.48,NE,42,2.0,3.0,98,0.00,,,0.00,WUHU216DAVISVP2,2013-11-01 00:08:00,
2013-10-31 19:13:00,38.2,37.7,29.48,NNW,336,2.0,3.0,98,0.00,,,0.00,WUHU216DAVISVP2,2013-11-01 00:13:00,
2013-10-31 19:18:00,38.2,37.7,29.48,North,350,0.0,3.0,98,0.00,,,0.00,WUHU216DAVISVP2,2013-11-01 00:18:00,
2013-10-31 19:23:00,38.2,37.7,29.48,North,5,0.0,3.0,98,0.00,,,0.00,WUHU216DAVISVP2,2013-11-01 00:23:00,
2013-10-31 19:28:00,38.2,37.7,29.48,West,276,0.0,3.0,98,0.00,,,0.00,WUHU216DAVISVP2,2013-11-01 00:28:00,
2013-10-31 19:33:00,38.2,37.7,29.48,NNW,328,0.0,3.0,98,0.00,,,0.00,WUHU216DAVISVP2,2013-11-01 00:33:00,
2013-10-31 19:38:00,38.2,37.7,29.49,NW,308,0.0,3.0,98,0.00,,,0.00,WUHU216DAVISVP2,2013-11-01 00:38:00,
2013-10-31 19:43:00,38.2,37.7,29.48,North,5,0.0,3.0,98,0.00,,,0.00,WUHU216DAVISVP2,2013-11-01 00:43:00,
2013-10-31 19:48:00,38.3,37.8,29.48,NNW,342,1.0,3.0,98,0.00,,,0.00,WUHU216DAVISVP2,2013-11-01 00:48:00,
2013-10-31 19:53:00,38.3,37.8,29.48,NNW,338,2.0,3.0,98,0.00,,,0.00,WUHU216DAVISVP2,2013-11-01 00:53:00,
2013-10-31 19:58:00,38.3,37.8,29.49,NNE,13,0.0,3.0,98,0.00,,,0.00,WUHU216DAVISVP2,2013-11-01 00:58:00,
2013-10-31 20:03:00,38.3,37.8,29.48,NNE,23,0.0,3.0,98,0.00,,,0.00,WUHU216DAVISVP2,2013-11-01 01:03:00,
2013-10-31 20:08:00,38.3,37.8,29.48,NNE,23,1.0,3.0,98,0.00,,,0.00,WUHU216DAVISVP2,2013-11-01 01:08:00,
2013-10-31 20:13:00,38.3,37.8,29.48,NNE,23,0.0,3.0,98,0.00,,,0.00,WUHU216DAVISVP2,2013-11-01 01:13:00,
2013-10-31 20:18:00,38.3,37.8,29.48,NNE,23,0.0,2.0,98,0.00,,,0.00,WUHU216DAVISVP2,2013-11-01 01:18:00,
2013-10-31 20:23:00,38.3,37.8,29.48,NNE,23,1.0,2.0,98,0.00,,,0.00,WUHU216DAVISVP2,2013-11-01 01:23:00,
2013-10-31 20:28:00,38.3,37.8,29.48,NNE,24,1.0,2.0,98,0.00,,,0.00,WUHU216DAVISVP2,2013-11-01 01:28:00,
2013-10-31 20:33:00,38.3,37.8,29.48,NNE,23,0.0,2.0,98,0.00,,,0.00,WUHU216DAVISVP2,2013-11-01 01:33:00,
2013-10-31 20:38:00,38.3,37.8,29.48,NNE,24,0.0,2.0,98,0.00,,,0.00,WUHU216DAVISVP2,2013-11-01 01:38:00,
2013-10-31 20:43:00,38.3,37.8,29.48,WNW,291,0.0,3.0,98,0.00,,,0.00,WUHU216DAVISVP2,2013-11-01 01:43:00,
2013-10-31 20:48:00,38.3,37.8,29.48,NE,42,0.0,3.0,98,0.00,,,0.00,WUHU216DAVISVP2,2013-11-01 01:48:00,
2013-10-31 20:53:00,38.3,37.8,29.48,NNE,13,0.0,3.0,98,0.00,,,0.00,WUHU216DAVISVP2,2013-11-01 01:53:00,
2013-10-31 20:58:00,38.3,37.8,29.48,NNE,15,0.0,3.0,98,0.00,,,0.00,WUHU216DAVISVP2,2013-11-01 01:58:00,
2013-10-31 21:03:00,38.3,37.8,29.48,North,5,0.0,4.0,98,0.00,,,0.00,WUHU216DAVISVP2,2013-11-01 02:03:00,
2013-10-31 21:08:00,38.2,37.7,29.49,North,360,0.0,4.0,98,0.00,,,0.00,WUHU216DAVISVP2,2013-11-01 02:08:00,
2013-10-31 21:13:00,38.3,37.8,29.49,North,355,0.0,4.0,98,0.00,,,0.00,WUHU216DAVISVP2,2013-11-01 02:13:00,
2013-10-31 21:18:00,38.3,37.8,29.49,North,351,0.0,4.0,98,0.00,,,0.00,WUHU216DAVISVP2,2013-11-01 02:18:00,
2013-10-31 21:23:00,38.3,37.8,29.49,North,351,1.0,2.0,98,0.00,,,0.00,WUHU216DAVISVP2,2013-11-01 02:23:00,
2013-10-31 21:28:00,38.4,37.9,29.49,North,351,0.0,2.0,98,0.00,,,0.00,WUHU216DAVISVP2,2013-11-01 02:28:00,
2013-10-31 21:33:00,38.4,37.9,29.49,WSW,242,0.0,2.0,98,0.00,,,0.00,WUHU216DAVISVP2,2013-11-01 02:33:00,
2013-10-31 21:38:00,38.4,37.9,29.49,ENE,76,0.0,3.0,98,0.00,,,0.00,WUHU216DAVISVP2,2013-11-01 02:38:00,
2013-10-31 21:43:00,38.4,37.9,29.49,NNW,333,3.0,3.0,98,0.00,,,0.00,WUHU216DAVISVP2,2013-11-01 02:43:00,
2013-10-31 21:48:00,38.4,37.9,29.49,WNW,286,0.0,3.0,98,0.00,,,0.00,WUHU216DAVISVP2,2013-11-01 02:48:00,
2013-10-31 21:53:00,38.4,37.9,29.49,WNW,286,0.0,3.0,98,0.00,,,0.00,WUHU216DAVISVP2,2013-11-01 02:53:00,
2013-10-31 21:58:00,38.5,38.0,29.49,WNW,290,0.0,3.0,98,0.00,,,0.00,WUHU216DAVISVP2,2013-11-01 02:58:00,
2013-10-31 22:03:00,38.5,38.0,29.50,WNW,291,0.0,3.0,98,0.00,,,0.00,WUHU216DAVISVP2,2013-11-01 03:03:00,
2013-10-31 22:08:00,38.5,38.0,29.49,NW,317,0.0,4.0,98,0.00,,,0.00,WUHU216DAVISVP2,2013-11-01 03:08:00,
2013-10-31 22:13:00,38.4,37.9,29.49,NW,317,0.0,4.0,98,0.00,,,0.00,WUHU216DAVISVP2,2013-11-01 03:13:00,
2013-10-31 22:18:00,38.5,38.0,29.50,North,350,0.0,4.0,98,0.00,,,0.00,WUHU216DAVISVP2,2013-11-01 03:18:00,
2013-10-31 22:23:00,38.5,38.0,29.50,North,350,2.0,4.0,98,0.00,,,0.00,WUHU216DAVISVP2,2013-11-01 03:23:00,
2013-10-31 22:28:00,38.6,38.1,29.50,North,350,0.0,3.0,98,0.00,,,0.00,WUHU216DAVISVP2,2013-11-01 03:28:00,
2013-10-31 22:33:00,38.6,38.1,29.50,North,350,0.0,3.0,98,0.00,,,0.00,WUHU216DAVISVP2,2013-11-01 03:33:00,
2013-10-31 22:38:00,38.6,38.1,29.50,North,350,0.0,2.0,98,0.00,,,0.00,WUHU216DAVISVP2,2013-11-01 03:38:00,
2013-10-31 22:43:00,38.6,38.1,29.50,NNW,347,0.0,3.0,98,0.00,,,0.00,WUHU216DAVISVP2,2013-11-01 03:43:00,
2013-10-31 22:48:00,38.6,38.1,29.50,NNW,346,0.0,3.0,98,0.00,,,0.00,WUHU216DAVISVP2,2013-11-01 03:48:00,
2013-10-31 22:53:00,38.6,38.1,29.50,NNW,346,0.0,3.0,98,0.00,,,0.00,WUHU216DAVISVP2,2013-11-01 03:53:00,
2013-10-31 22:58:00,38.6,38.1,29.51,NNW,346,0.0,3.0,98,0.00,,,0.00,WUHU216DAVISVP2,2013-11-01 03:58:00,
2013-10-31 23:01:00,38.6,38.1,29.51,NNW,346,0.0,2.0,98,0.00,,,0.00,WUHU216DAVISVP2,2013-11-01 04:01:00,
2013-10-31 23:06:00,38.6,38.1,29.51,NNW,343,0.0,2.0,98,0.00,,,0.00,WUHU216DAVISVP2,2013-11-01 04:06:00,
2013-10-31 23:11:00,38.6,38.1,29.51,NNW,343,0.0,3.0,98,0.00,,,0.00,WUHU216DAVISVP2,2013-11-01 04:11:00,
2013-10-31 23:16:00,38.6,38.1,29.51,NNW,329,1.0,3.0,98,0.00,,,0.00,WUHU216DAVISVP2,2013-11-01 04:16:00,
2013-10-31 23:21:00,38.6,38.1,29.51,NNW,329,0.0,3.0,98,0.00,,,0.00,WUHU216DAVISVP2,2013-11-01 04:21:00,
2013-10-31 23:26:00,38.6,38.1,29.50,NNW,329,0.0,3.0,98,0.00,,,0.00,WUHU216DAVISVP2,2013-11-01 04:26:00,
2013-10-31 23:31:00,38.7,38.2,29.50,West,278,0.0,2.0,98,0.00,,,0.00,WUHU216DAVISVP2,2013-11-01 04:31:00,
2013-10-31 23:36:00,38.7,38.2,29.50,West,279,0.0,2.0,98,0.00,,,0.00,WUHU216DAVISVP2,2013-11-01 04:36:00,
2013-10-31 23:41:00,38.6,38.1,29.50,WNW,289,0.0,2.0,98,0.00,,,0.00,WUHU216DAVISVP2,2013-11-01 04:41:00,
2013-10-31 23:46:00,38.6,38.1,29.50,WNW,290,1.0,2.0,98,0.00,,,0.00,WUHU216DAVISVP2,2013-11-01 04:46:00,
2013-10-31 23:51:00,38.6,38.1,29.50,SSE,158,0.0,3.0,98,0.00,,,0.00,WUHU216DAVISVP2,2013-11-01 04:51:00,
2013-10-31 23:56:00,38.6,38.1,29.50,SSE,158,0.0,3.0,98,0.00,,,0.00,WUHU216DAVISVP2,2013-11-01 04:56:00,